Regional Weather Roundup
Issued by NWS Newport/Morehead, NC

Current Version | Previous Version | Text Only | Print | Product List | Glossary On
Versions: 1 2 3 4 5 6 7 8 9 10 11 12 13 14 15 16 17 18 19 20 21 22 23 24 25 26 27 28 29 30 31 32 33 34 35 36 37 38 39 40 41 42 43 44 45 46 47
000
ASUS42 KMHX 210110
RWRMHX
WEATHER ROUNDUP FOR EASTERN NORTH CAROLINA
NATIONAL WEATHER SERVICE NEWPORT/MOREHEAD CITY NC
900 PM EDT SUN APR 20 2014

NOTE: "FAIR" INDICATES FEW OR NO CLOUDS BELOW 12,000 FEET
WITH NO SIGNIFICANT WEATHER AND/OR OBSTRUCTIONS TO VISIBILITY

NCZ015>017-031-032-045>047-102-103-210200-
NORTH COAST

CITY           SKY/WX    TMP DP  RH WIND       PRES   REMARKS
EDENTON        CLOUDY    50  42  74 N15G22    30.19S
ELIZABETH CITY CLOUDY    48  42  80 N22G30    30.21S
KITTY HAWK     CLOUDY    47  45  92 N17G26    30.15R FOG
MANTEO         CLOUDY    47  45  90 NE26G33   30.16F

$$

NCZ045>047-081-094-103-104-210200-
CENTRAL COAST

CITY           SKY/WX    TMP DP  RH WIND       PRES   REMARKS
FRISCO         CLOUDY    49  49 100 NE20G38   30.06S
SWANQUARTER      N/A     50 N/A N/A N21G30    30.09S

$$

NCZ095-097-098-100-101-210200-
SOUTHERN COAST

CITY           SKY/WX    TMP DP  RH WIND       PRES   REMARKS
BEAUFORT       CLOUDY    52  50  93 N26G36    30.08R
CEDAR ISLAND     N/A     54 N/A N/A N23G43    30.12S
JACKSONVILLE   CLOUDY    53  49  86 N20G30    30.11R
NEWPORT          N/A     52  50  93 N14G23      N/A
PINEY ISLAND   CLOUDY    53  32  44 N28G39    30.08R
WILMINGTON     CLOUDY    56  49  77 N17G25    30.10R


$$

NCZ011>013-027>030-043-044-078>080-089-090>093-098-210200-
COASTAL PLAIN

CITY           SKY/WX    TMP DP  RH WIND       PRES   REMARKS
AHOSKIE        CLOUDY    53  33  47 N12       30.24R
CLINTON        CLOUDY    58  42  56 N13G21    30.16R
ELIZABETHTOWN  CLOUDY    58  42  55 N7        30.14R
GOLDSBORO      CLOUDY    56  39  51 N10G18    30.16S
GREENVILLE     CLOUDY    54  34  47 N18       30.21R
HAVELOCK       CLOUDY    51  47  86 N21G28    30.12R
KENANSVILLE    CLOUDY    56  40  56 N15G23    30.16R
KINSTON        CLOUDY    55  39  54 MISG      30.17S
NEW BERN       CLOUDY    54  47  77 N12G24    30.14R
RICHLANDS      CLOUDY    54  54 100 N10       30.13S
ROANOKE RAPIDS NOT AVBL
ROCKY MOUNT    CLOUDY    56  36  47 N16       30.22R
WASHINGTON     CLOUDY    53  43  69 N13G24    30.18R
WHITEVILLE     CLOUDY    58  45  60 N7        30.13R

$$

AMZ130-135-150-152-154-156-158-170-250-252-270-ANZ085-086-088-633-658-670-210200-
MARINE OBSERVATIONS

STATION/POSITION TIME  TEMP    WIND        PRES    WAVE   SWELL
                       AIR SEA DIR/SP/G            HT/PER HT/PER
                 (UTC) (F)     (DEG/KT/KT) (MB)    (FT/S) (FT/S)
CHESAPEAKE LIGHT 0000   46      30/ 34/ 39 1023.3
BUOY 44014       0100   49 48   10/ 23/ 29 1020.7   14/11  11/11
DUCK             0100   47 49   10/ 26/ 33 1020.4
2E DUCK          0100      48                N/A    13/11   8/11
OREGON INLET     0100   48 51  360/ 21/ 28 1020.0
BUOY 44095       0100      48                N/A    15/12  10/12
HATTERAS CG      0100   52 55   10/ 18/ 30 1018.0
DIAMOND BUOY     0100   60 76   10/ 31/ 39 1014.9   16/12  10/12
CAPE LOOKOUT     0000   55      10/ 24/ 28 1017.2
BEAUFORT LAB     0100   54 57   10/ 20/ 27 1017.7
30 SE NEW RIVER  0000   58 67   20/ 33/ 41 1015.4
5 SE WRIGHTSVILL 0000   57 58   10/ 25/ 27 1017.2
FRYING PAN BUOY  0100   59 68   20/ 33/ 43 1015.0   13/ 8
BUOY 41001       NOT AVBL
BUOY 41002       NOT AVBL
BUOY 41004       NOT AVBL

$$



USA.gov is the U.S. government's official web portal to all federal, state and local government web resources and services.